Weather History for Springfield, MO

Change the Weather History Date:

Monday, September 30, 2013

  Actual Average Record
Temperature  
Mean Temperature 66 °F 63 °F  
Max Temperature 77 °F 74 °F 91 °F (1979)
Min Temperature 55 °F 52 °F 31 °F (1984)
Degree Days  
Heating Degree Days 0 4  
Month to date heating degree days 14 52  
Since 1 July heating degree days 14 55  
Cooling Degree Days 1 2  
Month to date cooling degree days 230 173  
Year to date cooling degree days 1373 1359  
Growing Degree Days 16 (Base 50)    
Moisture  
Dew Point 61 °F    
Average Humidity 78    
Maximum Humidity 100    
Minimum Humidity 56    
Precipitation  
Precipitation 0.00 in 0.14 in 3.85 in (1986)
Month to date precipitation 2.18 4.61  
Year to date precipitation 40.33 34.72  
Snow  
Snow 0.00 in - - ()
Month to date snowfall 0.0  
Since 1 July snowfall 0.0  
Since 1 September snowfall 0.0  
Snow Depth 0.00 in    
Sea Level Pressure  
Sea Level Pressure 29.92 in    
Wind  
Wind Speed 9 mph (SSE)    
Max Wind Speed 16 mph    
Max Gust Speed 20 mph    
Visibility 8 miles    
Events Fog    
T = Trace of Precipitation, MM = Missing Value Source: NWS Daily Summary

Daily Weather History Graph

Daily Weather History Graph

Search for Another Location

Airport:

Trip Planner

Search our weather history database for the weather conditions in past years. The results will help you decide how hot, cold, wet, or windy it might be!

Date:

Astronomy

Sep. 30, 2013 Rise Set
Actual Time 7:08 AM CDT 6:57 PM CDT
Civil Twilight 6:42 AM CDT 7:23 PM CDT
Nautical Twilight 6:12 AM CDT 7:54 PM CDT
Astronomical Twilight 5:41 AM CDT 8:24 PM CDT
Moon 2:50 AM CDT (9/30) 4:24 PM CDT (9/30)
Length of Visible Light 12h 41m
Length of Day
11h 49m
Waning Crescent, 19% of the Moon is Illuminated
Sep 30
Waning Crescent
Oct 4
New
Oct 11
First Quarter
Oct 18
Full
Oct 26
Last Quarter

Hourly Weather History & Observations

Time (CDT) Temp. Dew Point Humidity Pressure Visibility Wind Dir Wind Speed Gust Speed Precip Events Conditions
12:52 AM 57.9 °F 53.1 °F 84% 29.94 in 10.0 mi SE 4.6 mph - N/A   Clear
1:52 AM 55.0 °F 53.1 °F 93% 29.94 in 10.0 mi SE 4.6 mph - N/A   Clear
2:16 AM 57.0 °F 54.0 °F 89% 29.95 in 10.0 mi SE 6.9 mph - N/A   Scattered Clouds
2:25 AM 57.9 °F 55.9 °F 93% 29.95 in 9.0 mi SE 6.9 mph - N/A   Mostly Cloudy
2:37 AM 59.0 °F 57.9 °F 96% 29.94 in 1.0 mi SE 6.9 mph - N/A   Overcast
2:47 AM 60.8 °F 59.0 °F 94% 29.94 in 0.5 mi SE 9.2 mph - N/A Fog Fog
2:52 AM 60.1 °F 59.0 °F 96% 29.92 in 0.5 mi SE 9.2 mph - N/A Fog Fog
3:52 AM 62.1 °F 61.0 °F 96% 29.90 in 1.0 mi SSE 12.7 mph - N/A   Mist
4:28 AM 62.1 °F 62.1 °F 100% 29.93 in 0.5 mi SSE 8.1 mph - N/A Fog Fog
4:40 AM 62.1 °F 62.1 °F 100% 29.93 in 2.0 mi SSE 10.4 mph - N/A   Overcast
4:48 AM 62.6 °F 62.6 °F 100% 29.94 in 8.0 mi SSE 8.1 mph - N/A   Overcast
4:52 AM 62.1 °F 62.1 °F 100% 29.91 in 10.0 mi SSE 10.4 mph - N/A   Overcast
5:52 AM 63.0 °F 62.1 °F 97% 29.92 in 3.0 mi South 8.1 mph - N/A   Overcast
6:52 AM 63.0 °F 62.1 °F 97% 29.93 in 9.0 mi South 8.1 mph - N/A   Overcast
7:16 AM 63.0 °F 62.1 °F 97% 29.95 in 1.5 mi SSE 11.5 mph - N/A   Overcast
7:52 AM 63.0 °F 62.1 °F 97% 29.93 in 1.5 mi SSE 9.2 mph - N/A   Overcast
7:59 AM 63.0 °F 63.0 °F 100% 29.95 in 5.0 mi SSE 9.2 mph - N/A   Overcast
8:52 AM 63.0 °F 62.1 °F 97% 29.94 in 8.0 mi SSE 9.2 mph - N/A   Overcast
9:52 AM 64.9 °F 63.0 °F 93% 29.94 in 10.0 mi SSE 11.5 mph - N/A   Overcast
10:52 AM 66.9 °F 63.0 °F 87% 29.94 in 10.0 mi SSE 8.1 mph - N/A   Overcast
11:52 AM 68.0 °F 63.0 °F 84% 29.94 in 10.0 mi South 10.4 mph - N/A   Overcast
12:38 PM 70.0 °F 63.0 °F 78% 29.94 in 10.0 mi South 12.7 mph - N/A   Overcast
12:52 PM 70.0 °F 63.0 °F 78% 29.92 in 10.0 mi South 10.4 mph - N/A   Overcast
1:34 PM 71.1 °F 63.0 °F 75% 29.93 in 10.0 mi South 9.2 mph - N/A   Overcast
1:52 PM 73.9 °F 63.0 °F 68% 29.90 in 10.0 mi South 9.2 mph - N/A   Mostly Cloudy
2:52 PM 75.0 °F 61.0 °F 62% 29.88 in 10.0 mi South 9.2 mph - N/A   Scattered Clouds
3:52 PM 77.0 °F 61.0 °F 58% 29.86 in 10.0 mi South 8.1 mph - N/A   Scattered Clouds
4:52 PM 75.9 °F 61.0 °F 60% 29.85 in 10.0 mi SE 12.7 mph - N/A   Clear
5:52 PM 75.0 °F 62.1 °F 64% 29.86 in 10.0 mi SSE 9.2 mph - N/A   Clear
6:52 PM 72.0 °F 62.1 °F 71% 29.86 in 10.0 mi SSE 8.1 mph - N/A   Clear
7:52 PM 68.0 °F 61.0 °F 78% 29.87 in 10.0 mi SE 5.8 mph - N/A   Partly Cloudy
8:52 PM 66.9 °F 61.0 °F 81% 29.89 in 10.0 mi SE 9.2 mph - N/A   Partly Cloudy
9:52 PM 68.0 °F 63.0 °F 84% 29.88 in 10.0 mi SSE 11.5 mph - N/A   Clear
10:52 PM 66.9 °F 63.0 °F 87% 29.90 in 10.0 mi SSE 9.2 mph - N/A   Clear
11:52 PM 66.9 °F 64.0 °F 90% 29.90 in 10.0 mi SSE 9.2 mph - N/A   Mostly Cloudy